Other Surface Observations
Issued by NWS Jacksonville, FL

Home | Current Version | Previous Version | Text Only | Print | Product List | Glossary On
Versions: 1 2 3 4 5 6 7 8 9 10 11 12 13 14 15 16 17 18 19 20 21 22 23 24 25 26 27 28 29 30 31 32 33 34 35 36 37 38 39 40 41 42 43 44 45 46 47 48 49 50
000
SXUS52 KJAX 300510
OSOJAX
OTHER SURFACE OBSERVATIONS
NATIONAL WEATHER SERVICE JACKSONVILLE FL
100 AM EDT SAT AUG 30 2014

FLZ020>025-030>033-035>038-040-300600-
...FLORIDA...

CITY           SKY/WX    TMP DP  RH WIND       PRES   REMARKS
CECIL FIELD    CLOUDY    75  73  94 S5        30.14R
HERLONG FIELD  NOT AVBL
FERNANDINA BCH NOT AVBL
LAKE CITY      MOCLDY    72  72 100 SE5       30.13R
JUNIPER SPGS   NOT AVBL
BUNNELL        FAIR      73  71  95 CALM      30.12R
KEYSTONE HGTS    N/A    N/A N/A N/A MISG        N/A
$$

GAZ132>136-149>154-162>166-300600-
...GEORGIA...

CITY           SKY/WX    TMP DP  RH WIND       PRES   REMARKS
JESUP            N/A     77  73  88 CALM      30.11S
HOMERVILLE     MOCLDY    81  73  78 CALM      30.12R
SWAINSBORO     FAIR      79  75  89 CALM      30.14R
CORDELE        NOT AVBL
$$

PLEASE NOTE:  THESE OBSERVATIONS ARE NOT QUALITY CONTROLLED AND MAY
NOT BE AVAILABLE AT ALL TIMES.
$$


USA.gov is the U.S. government's official web portal to all federal, state and local government web resources and services.